Location: Leesville
(37.1191°N, 79.3856°W)
Time: 11:02:47
(UTC+00:00)

Hubble Space Telescope - Visible Passes

Search period start: 04 October 2024 00:00
Search period end: 14 October 2024 00:00
Orbit: 504 x 508 km, 28.5° (Epoch: 03 October)

Date Brightness Start Highest point End Pass type
(mag) Time Alt. Az. Time Alt. Az. Time Alt. Az.
04 Oct 2.6 10:11:40 14° SW 10:13:13 17° SSW 10:15:48 10° SSE visible
05 Oct 2.6 09:51:48 16° SSW 09:51:58 16° SSW 09:54:26 10° SSE visible
06 Oct 3.0 09:31:57 13° S 09:31:57 13° S 09:32:59 10° SSE visible
